Wind_Speed
9 9 10 10 10 10 11 11 12 13 14 14 15 16 16 17 18 18 19 20 21 22 23 24 26 27 28 29 30 32 33 35 36 37 38 39 39 40 39 39 37 36 36 36 34 32 29 28 27 25 23 20 18 17 16 14 13 13 12 12 11 9 7 6 6 6 8 9 8 9 9 10 12 14 16 19 21 24 28 30 32 34 35 36 34 33 34 33
10 9 9 9 10 10 10 11 12 13 14 15 15 16 16 17 17 18 19 20 21 21 22 24 25 26 28 29 30 31 32 34 35 37 38 39 40 40 40 40 39 38 38 37 36 34 31 30 29 28 25 23 21 20 18 16 15 14 14 13 12 11 9 7 7 7 7 9 8 10 9 8 11 12 14 17 19 22 25 28 30 32 34 35 34 33 33 33
10 9 9 9 9 10 10 11 12 13 14 15 15 16 16 17 17 18 19 19 20 21 22 23 24 26 27 28 30 31 32 33 34 36 38 39 40 41 41 41 41 40 40 39 38 36 34 32 31 30 28 25 24 22 19 18 16 15 15 15 14 12 10 9 8 9 11 11 9 11 10 8 9 10 12 14 18 20 23 26 28 30 32 34 34 33 33 32
10 10 9 9 9 10 10 11 12 13 14 15 16 16 17 17 17 18 18 19 20 21 22 23 24 25 26 28 29 30 31 33 34 35 37 38 39 41 42 42 42 42 41 40 40 38 36 34 33 32 30 28 26 25 23 20 18 17 16 16 16 14 12 11 10 11 13 12 11 12 11 9 9 9 11 13 16 18 20 24 27 29 31 33 34 34 33 32
11 10 9 9 9 10 10 11 12 13 14 15 16 16 17 17 18 18 19 19 20 21 22 23 24 25 26 27 28 30 31 32 33 34 36 37 38 40 41 42 43 43 43 42 41 40 38 37 35 34 32 30 29 28 27 24 20 18 16 16 17 16 14 13 13 13 12 11 12 12 12 10 9 9 10 12 14 16 18 21 25 27 29 31 33 33 33 32
12 11 10 9 10 10 11 11 12 13 14 15 16 16 17 17 18 18 19 19 20 20 21 22 24 25 25 26 27 29 30 31 32 34 35 36 37 39 40 42 43 44 44 43 43 42 40 40 38 36 35 33 31 30 30 27 24 20 18 18 17 17 16 14 14 14 12 12 13 14 13 10 7 8 10 11 12 15 17 20 23 25 27 29 31 32 32 32
14 13 11 10 10 11 11 12 12 13 15 15 16 17 17 17 18 18 18 19 20 20 21 22 23 24 25 26 27 28 29 30 32 33 34 35 36 37 39 41 43 44 44 44 44 43 42 42 41 39 37 35 33 33 32 30 28 24 23 23 21 19 18 16 15 15 14 14 15 15 14 10 5 7 11 10 9 12 15 17 20 23 25 26 29 30 31 31
15 15 13 12 11 11 12 13 13 14 15 16 17 17 17 17 17 18 18 19 19 20 21 22 23 23 24 25 26 27 28 29 31 32 33 34 36 36 38 40 41 43 44 45 45 45 44 44 43 41 39 38 37 36 34 33 31 29 27 25 23 21 20 19 17 17 17 15 14 15 14 10 6 7 10 9 8 11 13 15 18 20 22 24 26 28 30 30
17 17 16 15 13 13 13 14 14 15 16 17 17 18 17 17 17 18 18 18 19 20 21 22 23 23 24 25 25 26 27 29 30 31 32 33 35 36 37 39 40 42 43 45 45 46 46 46 45 43 42 41 40 38 37 35 34 33 31 28 25 23 22 21 20 19 19 16 14 14 14 13 9 7 8 7 7 9 12 14 16 18 20 22 24 26 28 29
18 18 18 17 16 15 15 15 16 16 17 18 18 18 18 18 17 17 18 18 19 20 20 21 22 23 24 24 25 25 26 28 29 30 31 32 34 35 36 38 39 40 42 44 45 46 47 47 46 45 44 43 42 41 39 38 37 36 34 31 28 25 23 22 22 22 20 17 15 16 16 15 11 9 8 6 6 8 10 11 13 16 18 20 22 24 26 28
20 20 20 19 19 18 17 17 17 18 19 19 19 19 19 18 17 17 17 18 19 19 20 21 22 23 23 24 25 25 26 27 28 29 31 32 32 34 35 37 38 40 41 43 44 46 47 47 47 47 46 45 44 44 42 40 40 38 36 34 32 28 26 24 24 24 22 18 17 17 18 15 12 11 10 7 5 6 6 9 11 13 16 18 20 22 24 26
21 21 21 21 20 20 19 19 19 20 20 20 20 20 20 19 18 18 17 18 18 19 20 20 21 22 23 23 24 25 26 26 27 28 30 31 31 33 34 36 38 39 41 42 43 45 46 47 48 49 48 47 47 46 45 43 42 41 39 37 34 32 29 25 24 25 24 20 18 18 18 17 14 13 12 7 6 5 4 7 9 11 13 16 18 20 22 24
22 22 22 22 22 21 21 20 21 21 21 22 22 21 20 19 19 18 18 18 18 19 20 20 21 21 22 23 23 25 26 26 26 27 28 30 31 32 33 35 37 39 40 42 43 43 45 46 48 49 49 49 49 48 46 45 44 43 42 40 37 35 32 28 26 26 25 23 21 20 20 20 17 14 13 9 7 6 1 5 8 9 11 14 16 18 19 21
23 23 23 23 23 22 22 22 22 22 22 22 22 22 21 20 19 19 19 19 19 19 20 20 20 21 21 22 23 24 25 26 26 27 27 29 30 31 32 34 36 38 39 41 42 43 44 45 47 49 49 50 50 50 48 48 46 45 44 42 40 38 36 33 29 28 27 25 24 22 21 22 18 15 14 11 10 9 3 3 6 7 8 11 13 15 17 18
23 24 24 24 24 23 23 23 23 23 23 23 23 22 21 21 20 19 20 20 20 20 20 21 21 21 21 22 22 23 24 25 26 27 27 28 29 30 31 33 35 37 38 40 41 42 43 44 46 48 49 50 51 50 50 49 48 47 46 45 43 41 39 36 33 30 29 28 27 24 22 20 18 16 15 13 11 10 6 1 4 5 6 8 11 13 15 16
24 24 24 24 24 24 24 24 24 24 24 23 22 22 21 21 20 20 20 20 21 20 20 21 21 21 21 22 22 22 23 24 25 26 27 28 28 29 30 32 34 36 38 39 40 41 42 44 45 47 48 50 50 50 51 50 50 49 48 47 46 44 42 39 37 34 31 29 27 24 20 18 17 16 15 13 12 11 7 2 2 3 3 5 8 11 13 14
25 25 25 25 24 25 25 25 25 25 24 23 22 21 21 21 21 21 21 21 21 21 21 21 22 22 22 22 22 23 23 23 25 26 27 27 28 29 29 30 33 35 37 38 39 40 42 43 45 45 47 48 50 51 51 51 51 51 51 50 48 46 44 42 40 38 35 31 28 25 21 18 16 16 15 14 13 10 8 5 2 1 2 3 5 8 11 12
25 25 25 25 25 25 25 26 26 25 24 23 22 21 21 21 21 21 21 21 21 22 22 22 22 22 22 22 22 23 23 23 24 25 26 27 28 29 29 29 31 34 36 37 38 39 41 43 44 44 45 47 49 50 51 52 52 52 53 53 51 48 47 45 43 41 39 35 31 30 26 21 18 17 16 14 14 12 10 8 5 1 1 2 3 6 8 10
26 25 25 25 25 26 26 26 25 24 23 22 22 21 22 22 22 22 22 22 22 22 22 22 22 22 22 22 22 23 24 24 24 24 25 26 27 29 29 29 30 32 34 36 37 39 40 42 43 44 45 46 48 50 51 52 53 54 54 54 53 51 49 47 45 44 42 38 36 35 34 28 21 20 18 16 16 15 13 11 9 5 2 2 4 3 5 7
26 26 25 25 26 26 26 26 24 23 22 22 22 22 22 22 23 22 22 23 23 23 22 22 22 23 23 22 22 23 23 24 24 24 25 26 27 28 29 29 30 31 33 34 36 37 39 41 42 43 44 45 47 49 51 52 54 55 55 55 54 53 51 50 48 47 45 42 40 39 39 35 28 23 21 19 18 18 17 14 12 9 5 4 5 4 2 5
26 26 26 26 26 26 26 25 24 23 23 22 23 23 22 23 23 23 23 23 23 23 23 22 22 23 23 23 23 23 23 23 24 24 25 25 26 27 28 29 30 31 32 34 35 35 37 40 41 42 43 45 46 48 50 51 53 55 55 55 55 54 53 52 51 49 47 45 44 42 41 39 33 28 25 23 21 21 20 17 15 12 7 7 8 6 2 2
26 26 26 26 25 25 25 25 25 24 24 23 23 23 23 23 23 24 24 23 23 24 23 21 21 22 24 23 23 22 22 23 23 23 24 25 26 27 27 29 29 31 32 33 34 33 35 38 40 41 43 44 46 47 49 50 51 54 55 55 55 56 55 54 52 51 50 48 47 45 43 40 36 31 28 27 25 23 22 21 19 15 10 9 10 8 4 1
25 26 25 25 25 25 25 24 25 25 25 25 24 23 22 23 23 24 25 24 23 24 23 21 21 22 23 23 22 22 21 22 22 22 23 24 25 26 26 27 29 30 32 33 33 33 34 36 38 40 42 44 45 46 48 49 50 52 54 54 55 56 56 55 53 52 52 50 48 47 45 42 37 33 30 29 27 26 24 24 23 18 13 12 12 10 7 4
25 25 25 25 25 25 25 24 24 26 25 26 25 22 21 22 23 23 26 25 23 24 21 19 20 21 21 22 21 20 20 20 21 21 21 22 23 24 25 26 28 29 31 33 33 33 34 35 37 38 40 42 44 46 47 48 49 51 53 54 54 56 56 56 55 54 53 52 51 49 46 43 39 35 33 31 28 27 27 26 25 21 16 15 15 13 10 8
25 26 25 25 25 25 26 24 24 25 26 26 25 21 21 22 22 23 25 24 23 22 20 17 19 19 19 20 20 19 19 19 19 19 19 19 20 21 22 24 26 28 30 32 32 33 34 35 36 37 38 41 43 45 46 48 49 50 52 53 54 55 56 56 55 55 54 54 53 52 49 47 43 39 37 35 31 29 28 27 26 23 19 18 17 15 13 11
26 26 25 26 26 25 25 25 23 23 25 26 23 20 21 21 21 22 23 22 21 19 17 15 17 18 17 18 19 17 17 18 17 18 18 18 18 19 20 22 23 25 28 30 32 33 35 35 36 36 37 39 41 43 46 47 49 50 51 52 52 53 54 54 55 55 55 55 55 55 53 51 47 44 41 39 36 32 30 28 27 25 22 21 20 17 15 14
26 26 25 25 26 25 24 26 24 21 23 24 20 19 20 19 19 20 21 20 18 16 14 14 15 17 15 15 18 18 17 18 17 18 18 18 19 19 20 21 22 23 25 27 30 32 34 35 36 36 37 38 39 42 44 46 48 49 50 50 51 51 52 53 54 55 56 57 57 56 55 53 50 48 45 43 40 36 34 32 29 28 26 25 24 21 18 17
25 26 25 23 24 24 22 24 24 20 20 21 18 17 18 17 17 19 19 18 16 15 14 13 14 16 14 13 15 17 18 17 16 17 18 18 19 19 19 21 21 22 24 26 28 30 31 33 35 36 36 37 39 40 42 44 46 47 49 50 51 51 51 52 53 55 56 57 57 56 55 55 53 51 49 46 43 40 38 35 33 32 30 30 30 27 22 19
24 25 24 21 22 24 21 21 22 19 19 18 16 15 17 17 17 18 19 16 15 17 16 13 13 16 14 12 14 16 16 15 15 15 16 16 17 17 17 18 19 21 23 25 27 27 28 31 33 34 35 36 38 39 40 41 43 45 48 50 50 51 51 51 52 53 55 56 56 56 55 56 56 54 52 49 46 44 42 39 36 34 33 33 32 30 25 20
25 26 26 22 21 24 22 21 21 20 19 19 17 16 17 18 18 19 18 15 17 19 17 15 16 17 15 12 13 15 15 14 14 13 14 15 15 15 15 15 16 18 20 22 24 25 26 28 30 32 33 35 37 39 40 40 41 43 46 48 49 50 51 51 51 52 53 54 55 56 55 56 57 56 54 52 49 47 45 42 39 36 35 35 34 31 26 22
27 27 26 23 22 24 25 23 22 21 21 20 19 19 20 20 21 21 18 18 20 19 18 19 19 18 17 15 14 15 15 15 15 15 15 15 16 16 16 15 15 16 18 19 21 22 24 26 28 30 32 34 36 38 39 39 40 42 44 45 47 49 50 50 50 51 51 52 53 54 54 55 57 57 55 54 52 50 48 46 43 39 38 38 36 34 29 24
28 28 27 24 23 24 25 25 22 21 21 21 21 22 22 23 23 21 20 21 21 19 20 22 21 21 20 19 18 16 17 18 17 17 18 17 18 18 18 17 17 18 18 18 18 19 21 24 26 28 30 32 34 36 38 38 39 41 42 43 45 47 48 48 49 50 50 51 51 52 53 54 56 57 56 55 54 53 51 49 47 44 41 40 39 37 33 28
30 29 27 26 25 24 25 25 23 23 22 21 22 22 23 25 23 20 21 22 20 19 21 22 23 22 21 21 20 18 19 21 20 20 21 21 20 21 20 20 20 21 20 19 18 18 20 21 23 26 28 30 32 34 35 37 38 40 40 41 43 44 45 46 48 49 50 50 50 50 51 53 55 56 56 56 56 55 53 51 50 48 46 43 41 39 35 32
32 32 30 28 28 27 26 26 26 25 24 24 24 24 26 26 23 22 23 22 20 19 19 21 23 23 21 21 21 19 21 23 22 21 22 23 22 22 22 22 22 23 22 21 19 20 21 20 21 24 25 27 30 32 33 35 36 38 39 40 41 42 43 44 45 47 49 50 49 50 51 52 53 54 56 56 56 56 55 53 52 51 49 47 45 42 38 35
35 35 33 31 31 30 28 28 27 27 27 27 26 28 30 28 25 24 25 24 22 21 21 22 23 23 24 23 20 20 23 23 23 22 23 24 24 23 23 23 23 23 22 21 20 21 21 21 22 23 22 22 26 29 31 33 34 36 38 39 40 41 42 42 43 45 48 49 50 50 51 51 52 53 55 56 56 56 56 55 54 53 52 51 49 46 42 39
38 38 37 35 34 33 32 31 30 29 29 29 30 32 32 29 26 26 25 24 23 24 24 24 23 23 26 27 22 21 24 23 23 23 23 24 24 23 24 24 23 23 22 21 20 21 21 21 23 24 20 19 23 25 27 30 33 34 35 37 39 40 41 41 42 44 45 47 49 50 50 50 51 52 54 55 55 56 56 56 55 54 54 53 51 49 46 43
41 41 41 39 38 37 36 35 33 32 32 32 33 35 34 31 29 27 25 25 26 27 25 23 25 25 27 30 27 24 25 25 25 25 24 23 23 24 25 24 23 22 21 20 19 20 21 20 22 24 20 19 21 22 23 27 29 30 32 36 37 38 40 41 41 42 43 44 46 48 49 50 52 52 52 53 54 55 55 56 56 56 55 54 53 51 49 47
43 44 43 42 41 41 40 38 36 36 36 36 37 37 36 34 33 31 29 28 29 29 26 24 26 28 27 29 31 29 28 27 27 28 26 24 24 25 26 26 24 22 21 20 20 21 21 19 20 23 22 21 21 20 20 22 25 27 30 33 34 36 38 40 40 41 41 41 43 45 47 50 51 51 51 51 53 54 54 55 56 56 56 56 55 52 50 49
44 45 45 43 43 44 43 42 40 38 38 39 39 38 38 37 36 35 33 32 32 31 29 26 26 29 29 30 31 32 32 31 30 31 29 27 28 28 28 26 25 23 21 21 21 21 21 19 20 21 22 22 22 19 18 19 20 23 27 29 32 34 36 38 39 40 39 39 41 43 46 49 50 51 52 51 51 52 54 55 56 57 58 58 57 55 53 51
45 47 46 45 45 45 45 45 44 42 41 41 40 39 39 39 38 37 35 35 35 34 31 28 27 29 30 31 31 32 34 33 33 33 32 31 31 31 29 27 26 25 24 24 23 22 22 21 20 20 21 23 22 18 18 18 18 20 23 25 28 31 33 35 37 38 39 39 39 41 44 46 48 50 51 51 51 52 53 54 55 56 57 58 58 57 56 53
43 46 47 46 47 47 47 46 46 46 45 43 41 41 41 41 40 38 37 37 37 37 34 30 29 29 31 32 31 30 32 34 34 35 34 34 34 34 32 29 29 28 28 27 25 24 22 21 20 19 20 23 21 17 17 18 17 18 20 22 25 27 30 33 35 36 37 37 37 38 41 43 46 47 49 51 52 53 53 53 54 55 56 57 58 58 58 56
39 42 44 45 47 49 49 48 48 47 46 45 45 44 43 42 42 40 38 38 39 39 36 32 30 30 31 32 30 28 29 31 33 34 35 36 37 37 35 33 31 31 30 29 28 25 23 22 21 19 20 22 20 18 18 17 17 18 18 19 21 24 27 30 32 34 36 36 37 37 38 41 44 45 47 50 52 53 53 53 54 54 55 56 57 58 58 58
39 39 41 42 45 48 50 50 49 48 46 46 47 46 45 44 43 41 40 39 40 40 38 34 32 31 31 31 30 28 27 28 30 32 34 37 39 38 37 36 34 32 32 32 30 27 25 24 24 22 21 22 21 20 19 17 18 19 17 17 19 21 23 26 29 32 35 36 37 36 37 40 42 43 45 47 50 52 54 54 54 54 54 55 56 58 59 59
40 39 40 41 43 47 49 50 50 49 47 47 46 46 46 46 44 43 41 40 40 40 40 37 33 32 32 31 30 28 27 27 29 30 33 37 38 38 38 38 35 33 33 33 32 30 28 27 26 25 23 23 23 22 19 18 20 20 19 18 18 18 20 22 25 28 31 34 35 36 37 39 40 41 42 45 48 51 54 55 54 53 53 54 55 57 58 59
41 40 40 42 44 46 47 48 49 49 47 46 44 44 45 46 46 45 43 41 41 41 41 39 35 33 33 33 31 28 26 27 28 28 30 34 35 36 37 37 36 34 34 35 34 34 33 30 29 28 27 25 25 23 20 20 22 22 20 19 18 18 19 20 22 25 28 31 33 35 36 38 39 39 41 44 47 49 52 53 54 53 53 54 55 56 58 58
43 42 43 46 46 45 45 47 48 49 48 46 45 45 45 46 46 46 44 42 42 41 41 41 38 35 34 33 31 29 27 27 27 26 28 31 32 32 33 33 34 34 35 35 36 37 37 34 32 31 29 28 27 25 23 23 23 22 21 20 19 19 19 19 21 23 25 28 31 34 35 36 37 39 41 44 45 47 49 50 53 54 54 54 54 55 56 58
48 47 48 51 49 46 46 47 48 48 49 48 46 45 46 47 48 46 45 44 42 41 41 41 39 37 35 33 31 29 28 28 28 27 28 30 31 29 28 28 29 31 33 35 37 39 39 36 34 34 33 30 28 27 26 26 25 22 22 21 20 19 19 19 20 21 22 25 27 29 32 34 37 40 42 43 44 45 47 48 51 54 55 54 54 55 56 57
56 55 55 55 54 50 48 48 48 48 49 48 46 45 47 48 47 46 46 45 43 41 41 42 41 38 36 34 32 30 29 28 29 29 28 30 31 29 28 28 28 28 29 31 35 38 38 38 37 37 36 34 30 28 28 28 26 23 22 22 20 19 19 19 19 19 20 22 23 25 29 32 36 39 41 42 43 45 47 48 50 52 53 54 54 55 56 57
62 61 60 59 56 53 49 48 49 50 50 49 48 48 48 48 47 47 47 46 44 42 42 43 41 39 37 34 32 31 30 28 29 30 29 29 30 30 31 30 29 29 29 29 31 33 36 39 39 38 38 37 33 30 29 29 27 24 23 22 20 19 19 18 18 19 21 22 22 23 26 30 34 38 39 41 43 45 47 48 50 51 52 53 55 55 56 57
66 65 62 59 56 52 49 48 50 51 51 50 50 49 48 47 48 48 46 45 44 43 43 44 42 39 38 34 32 31 29 28 29 30 29 28 29 31 32 30 30 31 31 31 30 28 32 37 40 40 38 38 38 35 31 30 29 26 25 24 22 20 18 17 18 20 23 23 22 23 25 27 31 34 36 39 43 46 48 48 49 50 51 53 55 56 57 58
66 64 61 58 54 50 48 48 50 52 53 52 51 49 47 47 48 47 46 45 44 43 43 44 42 40 38 34 33 32 30 29 30 30 29 28 29 32 31 29 30 31 31 31 30 28 30 34 38 41 40 40 40 39 34 31 30 29 28 27 24 20 18 18 19 20 23 25 23 23 24 26 29 32 35 38 42 45 47 47 48 49 50 52 54 56 58 59
64 62 59 56 52 49 46 47 50 52 54 53 51 48 46 47 49 48 47 46 44 43 44 45 44 41 38 35 34 33 30 29 29 29 28 27 29 31 29 27 28 30 30 30 30 29 31 33 35 37 40 42 42 40 37 34 32 31 31 30 26 22 21 20 19 21 24 25 24 22 24 26 28 31 34 37 40 42 44 45 46 48 50 52 53 55 58 60
Wind_Direction
255 254 253 253 252 252 253 254 254 254 254 253 252 250 248 247 246 245 244 242 239 237 235 233 232 230 228 227 226 225 223 223 222 221 221 221 220 220 220 220 220 220 223 226 228 226 227 228 230 231 230 229 228 228 230 228 224 220 218 220 221 222 228 239 260 285 315 312 312 327 344 5 4 7 18 16 14 15 13 14 17 21 23 24 24 24 25 28
254 252 250 249 249 251 252 254 255 256 256 255 254 253 251 249 247 246 246 245 243 241 239 236 235 233 231 229 228 227 226 225 224 223 222 222 221 221 221 221 220 220 222 225 228 227 226 227 229 231 230 229 228 229 231 229 227 228 224 225 228 227 228 236 254 276 284 281 297 313 318 344 356 0 14 16 14 16 14 13 16 19 23 24 24 24 25 26
256 253 249 247 247 249 251 253 255 255 256 255 255 254 254 253 251 249 247 246 246 244 242 240 238 236 234 232 230 229 228 227 225 224 223 223 222 222 222 222 221 221 221 224 226 226 226 227 228 230 230 229 228 228 228 227 228 230 228 228 228 228 230 232 242 257 259 265 290 304 302 318 343 353 8 16 15 16 14 13 15 17 22 24 24 25 26 26
259 255 250 247 247 248 251 253 255 256 256 255 255 255 255 254 254 253 251 249 247 247 246 243 241 239 237 235 233 231 229 229 227 226 225 224 223 223 223 223 222 221 221 223 225 226 226 227 228 229 230 229 228 228 227 227 227 230 233 229 222 220 228 230 230 243 254 269 286 291 292 303 325 343 3 14 14 17 16 14 15 17 21 23 24 25 26 28
264 260 253 248 247 248 250 253 255 257 257 257 256 255 255 255 255 255 254 253 251 249 248 247 245 242 240 238 236 233 231 230 229 228 227 225 224 224 224 224 223 222 222 222 224 226 226 226 227 228 229 229 229 230 230 229 227 228 231 227 220 219 230 235 232 237 248 265 274 277 282 291 313 338 1 10 12 16 18 17 16 17 20 23 24 24 25 28
271 267 260 253 250 249 251 254 256 258 259 259 258 257 256 255 255 255 255 255 255 253 251 250 248 246 243 241 239 237 234 233 231 229 229 227 226 225 225 225 224 224 223 223 223 225 226 226 226 226 228 228 228 230 232 231 227 226 225 226 227 228 234 235 236 243 249 261 269 272 274 283 316 341 353 2 10 17 19 19 18 18 20 23 25 24 25 27
276 275 270 263 258 256 256 257 259 261 262 261 260 259 257 257 256 256 255 256 256 256 255 253 252 249 247 244 242 240 238 236 233 231 229 229 227 226 226 225 225 225 224 223 223 224 225 226 226 225 227 227 226 228 231 231 229 227 226 230 236 237 235 232 235 246 253 261 269 270 270 279 316 332 336 350 9 18 21 20 20 20 19 22 25 26 25 27
277 279 277 273 268 265 264 263 263 264 264 264 263 261 260 259 258 258 257 256 256 256 256 255 254 253 251 248 245 243 241 239 236 233 231 230 229 228 227 226 226 226 225 224 223 223 224 226 227 225 226 226 226 226 228 230 231 231 230 233 239 238 234 233 233 238 247 255 265 271 273 278 292 310 324 345 8 18 22 22 22 22 19 20 24 27 27 28
276 278 279 278 274 271 270 268 268 267 267 266 265 264 262 261 260 260 259 258 257 256 256 255 255 254 253 251 248 245 243 241 239 237 233 231 230 229 229 228 227 226 226 225 224 223 223 225 227 226 226 227 227 227 226 228 231 232 231 233 237 237 234 235 236 238 245 248 254 269 275 278 285 297 315 343 6 13 21 24 24 23 21 20 22 27 28 28
274 275 277 277 276 275 273 272 271 270 269 267 267 266 265 264 262 262 261 260 259 257 256 255 254 254 253 252 251 249 245 243 241 239 237 233 231 230 230 229 228 227 226 226 225 224 223 224 226 226 225 226 228 228 226 226 230 231 231 231 234 236 233 233 236 240 244 243 247 264 271 273 278 282 298 328 354 7 18 24 26 24 23 22 21 26 29 29
272 274 275 276 276 275 275 274 273 271 270 269 268 268 268 267 265 264 263 262 261 259 258 256 255 254 253 252 252 251 248 245 243 241 239 236 233 231 231 231 230 228 227 226 226 225 224 224 225 226 225 225 227 229 228 226 228 230 231 231 232 233 230 229 234 237 238 239 247 259 263 264 266 272 286 306 329 352 18 26 26 25 24 24 23 24 29 30
271 272 273 274 274 274 274 273 273 272 271 271 270 270 270 270 269 267 265 264 263 262 260 258 257 255 254 252 251 252 251 248 245 242 241 238 236 233 232 231 231 230 229 227 226 225 225 225 225 226 225 224 226 228 229 228 228 229 231 230 231 231 228 227 231 233 233 233 240 244 250 259 262 269 280 286 300 321 20 38 29 25 25 27 25 24 29 31
270 271 272 273 273 273 273 272 271 271 271 271 271 271 272 272 272 271 269 266 265 264 263 261 259 257 255 252 251 251 251 250 248 244 242 240 237 235 234 232 231 231 230 229 227 226 225 225 225 226 226 225 225 226 228 229 228 229 230 230 230 229 228 228 229 231 230 231 234 234 247 262 263 267 274 271 277 287 1 51 33 25 24 28 28 25 29 33
269 270 271 271 272 272 272 271 270 270 270 270 271 272 273 274 274 273 272 269 267 265 265 264 261 260 258 255 252 251 250 250 249 247 245 242 239 236 235 234 233 232 231 230 228 227 226 225 226 227 226 226 226 226 227 228 229 229 230 230 230 229 229 230 230 230 229 232 234 237 253 260 256 261 264 261 269 273 268 48 40 28 21 29 31 27 28 35
269 269 269 269 270 270 270 270 269 269 269 269 271 273 274 275 274 274 273 271 269 266 266 266 264 262 260 258 254 252 250 250 249 249 247 245 242 238 236 236 235 233 232 231 230 228 227 226 226 227 227 226 227 227 228 228 229 229 229 230 230 229 229 230 230 229 229 231 233 242 255 251 246 253 254 255 264 269 268 299 59 39 18 26 36 32 28 34
268 267 267 267 268 268 268 269 268 269 269 271 273 274 275 275 274 273 272 271 270 268 266 266 265 264 262 260 257 254 252 251 250 249 248 247 245 241 238 236 236 235 233 232 231 230 229 227 226 227 227 227 227 228 228 229 229 230 230 230 230 230 229 230 230 228 227 228 231 239 245 236 238 247 248 251 258 263 265 239 99 67 28 14 33 41 34 34
268 267 268 268 267 267 268 268 268 269 271 273 274 275 275 274 273 272 271 270 270 269 268 266 265 264 263 262 260 257 253 251 250 249 249 248 247 244 240 238 237 237 235 233 232 231 230 229 228 227 227 227 227 228 228 229 230 230 230 230 230 229 229 229 230 229 228 229 230 231 229 226 235 244 244 246 252 256 255 248 236 99 56 358 18 43 41 38
269 269 268 268 268 268 267 268 269 271 274 275 275 274 274 273 272 272 271 270 270 269 269 268 266 265 263 262 261 260 256 253 250 249 248 248 247 246 244 240 239 238 237 235 233 232 231 231 229 228 227 227 228 228 228 228 230 230 231 231 230 229 229 229 229 230 230 229 229 227 226 229 238 240 237 237 242 246 246 251 257 240 51 334 345 32 45 40
272 272 271 270 269 269 268 269 271 273 275 276 275 274 274 273 271 271 271 271 270 270 269 269 268 267 264 262 260 259 258 255 252 250 248 247 247 247 245 243 240 239 239 237 235 233 232 232 231 229 228 227 227 228 228 228 228 229 231 232 231 230 229 229 229 230 230 228 228 227 228 233 238 239 235 230 233 237 240 249 255 252 258 276 287 345 43 45
274 274 273 272 271 271 273 274 275 275 276 276 275 275 274 274 273 272 272 271 271 270 269 269 269 269 267 264 261 258 257 256 253 251 249 247 246 246 245 244 242 241 240 239 236 234 233 233 232 231 229 228 227 227 228 229 229 229 229 231 233 232 230 229 229 229 230 229 229 229 231 234 237 239 237 231 230 233 237 245 253 252 244 244 252 266 4 37
274 273 272 272 273 274 276 278 278 277 276 275 275 274 274 275 276 275 273 272 273 272 270 269 270 270 269 266 263 260 258 256 254 251 249 247 246 245 244 244 243 242 242 241 239 236 234 235 233 232 231 230 229 228 228 229 230 231 230 230 232 233 232 231 229 229 230 230 231 231 232 236 238 239 238 234 230 231 234 240 245 243 239 242 239 238 271 2
274 274 273 274 275 276 277 277 277 277 276 274 273 273 274 276 277 277 275 273 274 273 272 272 271 270 269 267 265 263 260 258 255 252 250 248 247 245 244 244 243 243 243 242 240 238 236 236 235 233 232 231 230 229 229 229 230 232 232 231 231 232 232 232 231 231 230 230 232 233 234 237 237 235 234 233 230 229 232 236 239 237 236 239 236 232 233 263
277 276 277 277 276 275 275 275 276 276 276 276 274 274 276 278 278 278 278 276 275 275 274 274 273 271 270 269 266 265 262 260 257 254 251 249 247 246 244 243 243 243 243 243 241 240 239 237 236 235 234 232 231 231 230 229 230 231 232 232 231 231 232 232 232 232 232 231 231 233 235 236 234 231 229 230 230 228 229 233 236 236 232 231 233 236 232 225
278 278 277 276 275 275 274 275 276 277 277 277 277 278 278 277 277 278 279 279 278 277 276 276 275 272 271 270 268 266 264 261 259 256 252 250 248 246 245 243 242 242 243 243 242 241 241 239 237 236 235 234 233 232 232 231 231 231 231 231 232 232 232 232 232 232 232 232 232 232 233 233 232 229 227 228 230 228 227 230 233 233 230 229 233 238 237 232
279 279 279 278 278 278 278 277 276 277 278 277 279 282 280 277 277 277 277 279 279 279 280 279 275 272 270 269 267 264 263 262 260 258 255 252 249 247 246 244 243 242 243 243 242 241 242 241 239 237 236 235 235 234 233 232 232 232 232 231 232 232 232 231 232 233 233 233 233 232 232 231 231 229 227 226 228 227 226 226 229 230 229 230 233 236 239 239
282 282 281 282 281 280 281 280 276 276 277 277 280 282 278 277 278 276 276 278 279 281 285 285 279 273 269 268 268 266 264 264 262 261 259 255 252 249 247 246 244 243 243 243 243 242 242 242 241 239 238 237 236 236 235 233 233 233 233 232 232 232 232 232 232 232 233 233 233 233 232 232 231 229 227 227 227 226 225 222 224 227 228 230 232 234 239 243
283 283 282 282 282 281 281 281 278 275 276 277 279 278 276 276 275 274 275 277 281 285 290 289 280 273 270 267 268 268 266 264 264 263 261 259 256 253 250 249 246 245 243 242 242 243 243 243 242 241 240 239 237 237 236 235 234 234 233 233 233 233 232 232 232 232 232 233 233 233 233 233 232 229 228 228 228 226 224 221 223 226 229 231 233 237 243 246
284 283 281 281 281 280 278 278 279 276 276 276 275 275 275 273 271 272 274 278 286 289 286 283 277 275 274 266 263 265 264 264 263 262 262 260 257 255 252 250 248 247 246 243 242 242 243 244 244 243 242 242 240 239 238 237 236 236 235 234 233 233 232 232 232 232 232 233 233 234 235 235 234 232 229 229 229 227 224 222 225 230 231 232 235 239 243 245
284 282 281 280 280 279 277 276 278 278 276 275 273 273 272 271 271 271 273 281 286 282 278 280 278 274 273 266 260 263 265 265 261 258 257 256 254 253 252 250 250 248 247 246 243 242 244 245 245 245 244 244 244 242 241 239 238 238 237 236 234 233 233 232 232 232 233 233 233 233 234 235 235 234 232 231 229 228 226 225 228 231 232 232 234 237 239 241
283 281 281 281 279 279 279 277 277 278 277 276 275 273 270 271 270 270 275 280 275 275 279 280 273 271 275 274 268 266 265 263 260 254 250 251 253 253 252 251 251 250 250 249 246 243 243 245 245 245 244 244 244 243 242 240 239 239 238 238 236 234 233 232 232 232 233 233 233 233 233 235 235 234 234 232 229 228 227 227 228 230 229 229 232 235 235 237
282 281 282 283 281 280 280 279 279 278 277 276 275 273 271 270 269 269 273 270 267 273 276 272 269 273 277 277 273 270 266 261 258 254 248 249 254 257 256 256 255 255 254 253 251 247 244 244 245 245 244 243 243 243 242 241 240 240 239 238 238 237 235 233 233 232 233 233 234 233 233 234 235 234 233 232 230 229 228 227 228 228 227 227 231 233 233 235
279 279 281 282 281 279 279 279 280 279 277 277 275 273 271 269 268 269 268 264 264 267 267 267 270 272 273 274 272 270 268 264 258 254 252 251 254 259 261 262 263 261 260 259 257 254 251 247 245 245 245 244 244 244 244 242 241 241 241 239 238 238 236 235 234 233 233 232 233 233 234 235 235 234 233 232 231 229 228 227 227 227 227 226 229 231 230 231
276 276 277 278 278 277 276 278 279 278 277 276 274 272 269 267 268 269 265 263 263 263 263 267 269 268 267 268 268 266 265 264 259 254 255 256 256 260 264 266 267 267 265 263 260 258 256 252 249 247 246 246 245 244 243 243 243 242 242 241 240 239 238 236 235 234 233 232 232 232 233 234 235 234 233 232 232 230 228 227 227 227 227 226 228 230 229 229
274 274 274 274 274 274 274 275 275 275 275 274 273 271 267 267 269 268 266 265 264 261 261 262 265 268 266 263 264 265 261 260 259 255 256 258 258 260 264 266 268 268 267 264 261 258 257 256 254 249 247 248 248 246 244 243 243 242 242 241 241 241 239 237 235 235 234 233 232 231 232 233 234 234 234 232 231 231 229 227 227 227 228 228 229 231 231 230
272 273 272 272 272 272 271 271 271 272 272 272 271 268 265 268 270 268 267 267 266 262 258 257 262 268 269 265 261 260 260 259 260 258 256 258 260 261 263 265 266 267 267 264 260 257 255 255 254 251 249 250 251 249 247 244 243 242 242 242 241 240 240 238 235 235 234 233 232 231 232 232 233 234 234 233 232 231 230 228 227 227 228 229 231 232 233 231
269 269 270 270 270 270 270 269 269 269 269 269 268 266 266 269 270 268 268 268 266 261 258 259 260 261 264 266 262 256 259 261 261 259 257 257 260 261 262 263 265 266 265 262 258 255 255 255 256 253 248 250 253 250 248 246 244 243 243 242 240 240 239 238 237 235 234 234 233 232 231 232 232 233 234 234 233 232 231 230 228 228 228 229 230 231 232 230
267 267 267 267 267 267 268 268 267 267 267 266 265 265 267 269 269 269 268 267 264 262 263 264 264 262 262 266 267 263 260 261 260 259 258 258 260 261 261 262 263 264 264 261 257 254 252 253 258 258 251 249 253 252 249 248 246 244 244 242 241 240 239 238 237 236 234 234 234 233 232 232 232 232 233 234 234 232 232 231 230 229 228 228 229 230 231 230
266 266 265 264 265 265 265 265 265 265 265 264 264 266 268 268 268 268 267 265 264 265 267 268 267 268 267 266 267 267 264 261 259 259 259 259 258 257 258 260 261 262 263 260 254 252 250 248 253 259 256 252 252 253 253 251 248 245 244 243 242 241 240 238 237 236 235 234 234 234 233 232 232 232 232 233 233 233 232 231 230 229 228 228 229 230 230 230
266 266 265 264 264 263 263 264 263 263 263 263 264 265 266 266 266 266 266 265 265 264 267 269 270 272 271 267 264 264 262 259 256 256 258 257 257 256 257 259 260 261 261 258 252 249 249 246 246 253 257 255 251 250 254 253 251 249 246 245 244 242 241 239 238 236 235 234 234 234 234 232 231 231 231 231 232 233 232 231 231 230 229 228 229 229 230 231
268 266 265 264 263 263 262 262 262 261 261 261 263 264 264 265 265 265 264 264 263 263 265 270 272 273 272 269 265 263 262 260 257 256 255 254 255 256 256 257 259 259 258 256 252 248 248 247 246 249 255 257 252 249 254 255 253 252 250 246 244 244 242 240 238 236 234 233 234 235 236 234 232 231 231 231 231 232 232 231 230 230 229 229 229 229 230 231
270 268 266 264 263 262 261 260 260 260 260 261 262 263 264 264 264 263 263 263 263 263 265 267 269 272 272 270 269 268 265 262 259 257 256 254 253 253 254 254 255 257 257 255 253 252 252 252 249 246 251 257 257 253 255 256 256 256 253 248 245 244 244 241 238 236 234 232 233 235 237 236 234 231 231 231 231 231 232 231 231 230 230 229 229 228 229 230
276 272 268 265 263 262 260 259 258 258 259 260 260 261 262 263 263 263 263 263 262 262 263 265 267 269 270 271 274 275 269 262 258 256 254 253 252 252 251 250 250 253 256 256 255 255 257 257 252 246 248 255 258 255 253 254 257 258 256 253 249 244 244 243 240 237 234 231 229 231 234 235 234 232 231 231 231 231 232 232 231 230 230 229 229 228 228 228
281 278 274 268 264 262 259 258 257 256 256 257 258 259 260 262 262 262 262 261 261 261 262 263 264 265 267 271 276 277 272 265 260 255 251 249 250 251 252 251 250 251 253 255 256 256 256 256 255 251 249 252 254 253 251 252 256 258 257 257 253 247 245 244 242 239 236 232 229 229 231 233 233 233 232 231 231 230 230 231 231 230 229 229 229 229 228 228
281 281 280 274 267 262 259 257 256 256 255 256 256 257 258 260 260 260 260 260 260 260 261 261 261 262 265 269 274 276 274 268 262 256 252 250 251 251 252 253 252 252 252 254 255 254 253 252 254 254 252 252 253 253 251 253 258 259 257 257 257 254 250 246 243 242 239 235 232 230 230 232 232 233 234 233 232 231 230 230 230 230 230 230 229 229 228 228
279 279 281 278 272 265 261 258 256 255 254 254 253 252 253 255 256 257 258 260 260 259 259 259 259 260 262 267 272 276 274 269 265 262 259 256 255 253 252 252 253 251 251 252 253 252 251 250 251 253 255 255 256 256 254 255 257 258 259 259 259 258 255 249 245 243 240 236 233 231 230 231 231 231 232 233 233 232 231 229 229 229 230 230 230 229 229 228
281 279 279 279 277 271 265 259 256 252 250 248 248 247 249 251 252 254 256 257 258 257 256 257 257 258 262 266 271 275 275 272 269 267 264 261 260 258 256 255 254 251 250 250 251 251 251 249 249 251 253 254 256 258 256 255 257 257 259 259 260 259 259 255 248 243 241 238 234 231 230 230 231 230 230 231 233 233 233 231 229 228 228 229 229 229 229 229
285 283 280 279 279 276 269 260 255 252 249 247 247 247 248 249 250 252 254 255 255 254 253 253 255 257 261 265 269 272 272 271 269 268 266 265 265 266 265 262 259 254 250 247 248 251 252 251 249 249 251 250 251 254 257 258 256 257 259 259 259 259 259 258 254 249 247 243 238 234 232 231 231 231 230 231 231 233 233 232 230 229 227 228 228 229 229 229
287 285 282 279 279 277 271 261 254 251 248 245 244 244 245 247 249 250 251 252 252 250 248 249 253 256 259 263 267 269 269 268 268 269 269 267 268 270 269 267 266 263 258 250 248 249 252 252 251 250 250 250 248 250 255 257 256 256 259 259 258 257 257 258 259 256 253 247 240 235 233 231 231 231 231 232 232 233 233 232 231 230 228 227 227 228 228 229
288 286 282 280 278 275 270 260 252 248 246 242 240 241 243 245 246 247 248 249 251 249 246 246 250 254 257 262 264 265 267 268 267 268 268 266 266 267 268 269 269 268 266 261 254 248 247 247 248 248 249 250 249 248 250 254 256 256 258 260 259 257 255 256 257 257 255 250 242 236 233 232 232 232 232 233 233 233 232 231 230 229 228 227 226 227 228 228
288 286 282 279 276 272 266 257 248 245 244 240 238 239 242 244 246 246 248 250 251 249 246 245 248 252 255 259 260 262 265 265 262 261 261 260 261 264 267 271 271 268 267 266 263 258 250 245 242 242 244 246 247 247 246 250 254 255 258 260 259 257 257 256 254 254 255 252 245 238 233 233 233 232 231 232 233 232 232 232 230 228 227 227 227 226 227 228
286 284 281 278 274 268 261 252 245 242 242 239 237 237 240 243 246 247 248 249 249 249 246 244 245 248 250 252 254 258 260 259 256 255 256 256 258 263 268 271 270 269 269 269 269 266 260 253 245 240 239 241 244 244 243 245 249 253 256 257 257 259 263 259 254 253 255 253 247 240 236 234 233 232 231 231 232 232 232 232 232 229 227 227 227 227 227 227
284 281 278 275 270 264 256 248 241 239 239 239 236 235 238 242 244 244 245 246 248 246 243 241 241 242 243 243 247 252 254 252 250 251 253 254 259 264 268 271 272 273 274 274 272 267 264 261 255 247 241 239 242 244 242 241 243 248 253 255 256 259 261 260 258 255 255 254 250 244 239 237 235 234 233 233 233 234 233 232 232 232 229 227 227 227 227 227
Height
10933 10933 10933 10933 10933 10933 10933 10933 10933 10933 10933 10933 10933 10933 10934 10934 10934 10935 10935 10935 10936 10936 10937 10937 10938 10939 10940 10941 10942 10944 10945 10947 10948 10950 10952 10955 10957 10959 10961 10963 10966 10967 10967 10967 10969 10973 10975 10976 10977 10978 10980 10981 10983 10984 10984 10985 10985 10984 10984 10984 10984 10984 10983 10983 10983 10983 10983 10983 10983 10983 10983 10982 10982 10981 10980 10978 10976 10974 10972 10969 10966 10963 10961 10958 10954 10951 10949 10946
10932 10932 10932 10932 10932 10932 10932 10932 10932 10931 10931 10931 10932 10932 10932 10932 10932 10933 10933 10933 10934 10934 10935 10935 10936 10936 10937 10939 10940 10941 10942 10944 10945 10948 10949 10952 10954 10956 10958 10960 10963 10964 10964 10964 10966 10971 10973 10973 10974 10976 10978 10980 10981 10982 10982 10983 10983 10983 10983 10983 10983 10983 10983 10983 10983 10983 10983 10983 10983 10983 10983 10983 10982 10982 10980 10979 10978 10976 10973 10971 10968 10965 10963 10960 10958 10954 10950 10948
10931 10931 10931 10931 10931 10931 10931 10931 10930 10930 10930 10930 10930 10930 10930 10930 10931 10931 10931 10931 10932 10932 10932 10933 10933 10934 10935 10936 10937 10938 10939 10941 10942 10944 10946 10948 10951 10953 10955 10957 10960 10961 10962 10962 10964 10968 10970 10971 10972 10974 10976 10978 10979 10980 10981 10981 10982 10983 10982 10982 10982 10982 10983 10983 10982 10982 10982 10982 10983 10983 10983 10983 10982 10982 10981 10980 10979 10977 10975 10973 10970 10967 10964 10962 10960 10957 10953 10950
10930 10930 10930 10930 10930 10930 10930 10929 10929 10929 10928 10928 10928 10929 10929 10929 10929 10929 10929 10929 10930 10930 10930 10930 10931 10931 10932 10933 10934 10935 10937 10938 10939 10941 10943 10945 10947 10949 10951 10953 10956 10958 10959 10960 10961 10964 10968 10969 10970 10972 10973 10975 10976 10977 10978 10979 10981 10981 10981 10981 10981 10981 10982 10982 10981 10981 10981 10982 10983 10983 10983 10982 10982 10982 10981 10980 10980 10979 10977 10975 10973 10969 10966 10963 10960 10958 10956 10954
10928 10928 10929 10929 10929 10928 10928 10928 10928 10927 10927 10927 10927 10927 10927 10927 10927 10927 10927 10927 10928 10928 10928 10928 10928 10929 10929 10930 10931 10932 10934 10935 10937 10938 10940 10942 10944 10946 10948 10950 10952 10954 10956 10958 10959 10961 10964 10966 10967 10969 10971 10973 10974 10974 10976 10978 10979 10980 10980 10980 10980 10981 10981 10980 10980 10979 10980 10982 10983 10982 10982 10982 10982 10982 10981 10981 10980 10979 10978 10977 10974 10972 10968 10965 10962 10960 10958 10956
10926 10927 10927 10927 10927 10927 10927 10926 10926 10926 10925 10925 10925 10925 10925 10925 10925 10925 10925 10925 10926 10926 10926 10926 10926 10926 10927 10928 10928 10930 10931 10932 10933 10935 10937 10939 10941 10942 10944 10946 10949 10951 10953 10955 10957 10958 10961 10962 10964 10966 10968 10970 10972 10972 10973 10976 10977 10978 10978 10979 10979 10980 10980 10980 10979 10978 10979 10981 10982 10982 10982 10982 10982 10982 10982 10982 10981 10980 10979 10977 10976 10973 10971 10968 10965 10962 10960 10958
10924 10925 10925 10925 10925 10925 10925 10925 10924 10924 10924 10923 10923 10923 10923 10923 10923 10923 10924 10924 10924 10923 10923 10923 10923 10924 10924 10925 10926 10927 10928 10929 10930 10932 10934 10935 10937 10939 10941 10943 10945 10947 10950 10952 10954 10956 10957 10958 10960 10963 10965 10967 10969 10969 10971 10973 10975 10976 10977 10977 10977 10978 10979 10979 10978 10978 10979 10980 10981 10981 10981 10982 10983 10982 10982 10983 10982 10981 10980 10979 10977 10975 10973 10971 10968 10965 10962 10960
10922 10922 10923 10923 10923 10923 10923 10923 10923 10922 10922 10921 10921 10921 10921 10921 10921 10922 10922 10922 10922 10921 10921 10921 10921 10921 10922 10922 10923 10924 10925 10925 10927 10928 10930 10932 10934 10936 10937 10939 10941 10943 10946 10948 10951 10954 10954 10954 10957 10961 10963 10964 10965 10966 10968 10970 10972 10973 10974 10975 10975 10977 10977 10978 10978 10978 10979 10979 10980 10980 10981 10982 10983 10983 10983 10983 10982 10982 10981 10980 10978 10977 10975 10973 10971 10968 10965 10963
10921 10921 10921 10921 10921 10921 10921 10921 10921 10920 10920 10920 10919 10919 10919 10920 10920 10920 10920 10920 10919 10919 10919 10919 10919 10919 10919 10919 10920 10921 10922 10922 10923 10925 10927 10929 10930 10932 10934 10935 10937 10939 10941 10944 10947 10950 10951 10951 10953 10957 10960 10961 10962 10963 10966 10968 10969 10970 10971 10972 10973 10974 10976 10976 10977 10977 10978 10979 10979 10980 10980 10981 10982 10982 10983 10983 10982 10982 10981 10980 10979 10978 10977 10975 10973 10970 10968 10965
10919 10919 10919 10919 10919 10919 10919 10919 10918 10918 10918 10917 10917 10917 10917 10918 10918 10918 10918 10917 10917 10917 10917 10916 10916 10916 10917 10917 10917 10918 10918 10919 10920 10921 10923 10925 10927 10928 10930 10931 10933 10935 10937 10940 10943 10945 10947 10948 10950 10954 10956 10958 10959 10960 10963 10964 10965 10966 10968 10970 10971 10972 10974 10975 10976 10976 10977 10978 10979 10979 10980 10980 10980 10981 10982 10983 10982 10982 10981 10981 10980 10979 10978 10976 10974 10972 10970 10967
10917 10917 10917 10917 10917 10917 10917 10916 10916 10916 10915 10915 10915 10915 10915 10915 10916 10915 10915 10915 10915 10915 10914 10914 10914 10914 10914 10914 10914 10915 10915 10916 10917 10918 10919 10921 10923 10925 10926 10928 10929 10931 10933 10935 10938 10941 10943 10945 10947 10949 10952 10955 10955 10956 10959 10961 10962 10963 10964 10966 10968 10970 10971 10973 10974 10975 10976 10977 10978 10979 10979 10979 10979 10980 10982 10982 10982 10982 10981 10981 10980 10980 10979 10978 10976 10974 10972 10969
10915 10915 10914 10914 10914 10914 10914 10914 10914 10913 10913 10913 10913 10913 10913 10913 10913 10913 10913 10913 10913 10912 10912 10912 10912 10911 10912 10912 10912 10912 10912 10913 10914 10915 10916 10917 10919 10921 10922 10924 10925 10927 10929 10931 10934 10937 10940 10942 10943 10944 10948 10952 10952 10953 10955 10957 10959 10960 10961 10963 10965 10967 10969 10971 10972 10974 10975 10975 10977 10978 10979 10978 10978 10979 10981 10982 10981 10981 10981 10981 10981 10980 10980 10979 10977 10976 10974 10971
10912 10912 10912 10912 10912 10912 10912 10912 10911 10911 10911 10911 10910 10910 10910 10911 10911 10911 10911 10911 10910 10910 10910 10909 10909 10909 10909 10909 10909 10909 10909 10910 10911 10912 10912 10914 10915 10917 10918 10919 10921 10923 10925 10927 10930 10933 10935 10938 10939 10939 10944 10948 10948 10949 10952 10954 10956 10957 10958 10959 10962 10965 10966 10969 10970 10972 10973 10974 10975 10977 10977 10977 10977 10978 10980 10980 10980 10980 10980 10980 10981 10981 10980 10979 10978 10978 10976 10974
10910 10910 10910 10909 10909 10909 10909 10909 10909 10909 10908 10908 10908 10908 10908 10908 10908 10908 10908 10908 10908 10908 10907 10907 10907 10906 10906 10906 10907 10907 10907 10907 10908 10908 10909 10910 10912 10913 10915 10916 10917 10918 10920 10922 10925 10929 10931 10933 10934 10936 10940 10943 10944 10946 10948 10950 10952 10954 10955 10956 10959 10961 10964 10966 10968 10970 10971 10973 10974 10975 10976 10976 10976 10977 10978 10979 10979 10980 10980 10979 10980 10980 10980 10980 10979 10979 10978 10976
10907 10907 10907 10907 10907 10906 10906 10906 10906 10906 10906 10906 10906 10906 10906 10906 10906 10906 10906 10905 10905 10905 10905 10904 10904 10904 10904 10904 10904 10904 10904 10904 10905 10905 10906 10907 10908 10910 10911 10912 10913 10914 10916 10918 10921 10924 10927 10929 10930 10932 10935 10938 10940 10943 10945 10946 10948 10950 10951 10952 10955 10958 10960 10963 10965 10968 10969 10971 10972 10974 10974 10975 10976 10976 10977 10978 10978 10979 10979 10979 10979 10980 10980 10980 10980 10979 10978 10977
10905 10904 10904 10904 10904 10904 10903 10903 10903 10903 10903 10903 10903 10903 10903 10903 10903 10903 10903 10903 10902 10902 10902 10902 10901 10901 10901 10901 10901 10901 10901 10901 10902 10902 10903 10904 10904 10906 10907 10908 10909 10910 10912 10914 10917 10920 10922 10924 10926 10928 10931 10934 10937 10939 10941 10943 10945 10946 10947 10948 10951 10954 10957 10960 10962 10965 10967 10969 10971 10972 10973 10974 10975 10975 10976 10976 10976 10977 10978 10978 10978 10979 10980 10980 10980 10979 10979 10978
10902 10902 10901 10901 10901 10901 10900 10900 10900 10900 10900 10901 10901 10901 10900 10900 10900 10900 10900 10900 10900 10899 10899 10899 10899 10898 10898 10898 10898 10898 10899 10899 10899 10899 10900 10900 10901 10902 10904 10905 10905 10906 10908 10910 10913 10915 10918 10919 10921 10925 10928 10930 10933 10935 10937 10939 10941 10942 10943 10944 10947 10950 10953 10956 10959 10962 10964 10966 10968 10969 10970 10972 10973 10974 10974 10974 10975 10976 10977 10977 10977 10978 10979 10980 10980 10979 10979 10979
10899 10899 10898 10898 10898 10898 10898 10897 10897 10897 10898 10898 10898 10898 10898 10897 10898 10897 10897 10897 10897 10897 10896 10896 10896 10895 10895 10895 10895 10895 10895 10896 10896 10897 10897 10897 10898 10899 10900 10901 10902 10903 10904 10906 10909 10911 10913 10914 10917 10921 10924 10926 10928 10930 10933 10935 10936 10937 10938 10939 10943 10947 10950 10953 10956 10958 10961 10963 10965 10966 10967 10969 10971 10972 10972 10973 10973 10974 10975 10976 10977 10977 10978 10979 10980 10980 10979 10979
10896 10896 10895 10895 10895 10895 10895 10895 10895 10895 10895 10895 10895 10895 10895 10895 10895 10895 10894 10894 10894 10894 10893 10893 10893 10892 10892 10893 10893 10892 10892 10893 10893 10894 10894 10894 10895 10895 10896 10897 10898 10899 10900 10902 10904 10906 10908 10910 10913 10916 10919 10922 10924 10925 10927 10929 10930 10931 10932 10935 10939 10943 10946 10949 10953 10955 10957 10960 10961 10962 10965 10967 10969 10969 10971 10971 10972 10973 10974 10975 10976 10977 10977 10979 10980 10980 10980 10979
10893 10892 10892 10892 10892 10892 10892 10892 10892 10892 10892 10892 10892 10892 10892 10892 10891 10892 10892 10891 10891 10891 10891 10890 10890 10889 10889 10889 10890 10890 10889 10890 10890 10891 10891 10891 10892 10892 10893 10894 10895 10896 10896 10898 10899 10902 10904 10905 10908 10911 10914 10916 10918 10920 10922 10923 10925 10926 10929 10932 10934 10939 10942 10945 10948 10950 10953 10956 10957 10959 10962 10964 10965 10967 10969 10970 10971 10972 10972 10973 10974 10975 10976 10978 10979 10980 10980 10980
10890 10890 10890 10889 10889 10889 10889 10889 10889 10889 10889 10889 10889 10889 10889 10889 10888 10888 10888 10888 10888 10887 10887 10888 10887 10886 10886 10886 10886 10886 10887 10887 10887 10887 10888 10888 10889 10889 10890 10890 10891 10892 10893 10893 10895 10898 10900 10901 10904 10906 10909 10911 10913 10916 10918 10920 10920 10921 10925 10929 10930 10934 10937 10939 10943 10946 10949 10952 10952 10955 10959 10960 10962 10965 10967 10968 10969 10970 10971 10972 10973 10974 10975 10976 10978 10979 10980 10980
10887 10887 10887 10887 10887 10887 10886 10886 10886 10886 10886 10886 10886 10886 10886 10886 10885 10885 10884 10885 10885 10884 10884 10885 10885 10884 10882 10883 10883 10883 10883 10883 10884 10884 10885 10885 10885 10886 10887 10887 10888 10888 10889 10889 10891 10894 10896 10897 10899 10901 10903 10906 10908 10911 10913 10915 10916 10917 10920 10924 10927 10929 10931 10935 10940 10943 10945 10947 10949 10951 10954 10956 10958 10962 10964 10965 10966 10968 10969 10970 10971 10972 10973 10975 10976 10978 10978 10979
10884 10884 10884 10884 10884 10884 10883 10883 10883 10882 10882 10882 10883 10884 10884 10883 10883 10881 10880 10881 10882 10881 10881 10882 10882 10880 10879 10879 10880 10880 10880 10880 10881 10881 10882 10882 10883 10883 10883 10884 10885 10885 10885 10886 10888 10890 10891 10892 10894 10897 10898 10901 10903 10905 10908 10911 10912 10913 10915 10919 10921 10923 10926 10931 10936 10938 10940 10943 10946 10948 10950 10952 10955 10958 10961 10962 10963 10965 10967 10968 10969 10971 10972 10973 10975 10976 10977 10978
10881 10881 10881 10881 10881 10880 10880 10881 10880 10879 10879 10879 10879 10881 10881 10880 10879 10879 10877 10877 10878 10877 10878 10879 10878 10877 10877 10876 10876 10877 10877 10877 10878 10878 10879 10879 10879 10880 10880 10881 10881 10881 10881 10882 10885 10886 10886 10888 10890 10892 10894 10896 10898 10901 10903 10905 10907 10908 10911 10914 10916 10918 10923 10927 10931 10934 10936 10939 10941 10944 10946 10948 10951 10954 10957 10959 10960 10962 10964 10965 10967 10969 10970 10971 10973 10975 10976 10977
10878 10878 10878 10877 10877 10877 10877 10877 10878 10876 10876 10876 10876 10878 10878 10877 10876 10875 10874 10873 10874 10874 10875 10876 10875 10875 10874 10873 10874 10874 10874 10874 10875 10875 10876 10876 10876 10877 10877 10877 10878 10878 10878 10879 10881 10881 10882 10883 10885 10887 10889 10891 10893 10896 10898 10899 10902 10903 10906 10909 10911 10914 10918 10923 10927 10930 10932 10934 10936 10939 10941 10943 10946 10949 10952 10955 10956 10958 10961 10963 10964 10966 10968 10969 10971 10973 10974 10975
10874 10874 10874 10874 10873 10874 10873 10873 10874 10874 10873 10872 10874 10874 10874 10873 10873 10872 10871 10870 10871 10871 10872 10873 10872 10872 10872 10871 10870 10871 10872 10872 10872 10873 10873 10873 10873 10874 10874 10874 10875 10875 10875 10875 10876 10877 10878 10879 10881 10883 10885 10887 10889 10891 10892 10894 10897 10898 10901 10904 10907 10911 10915 10919 10922 10924 10926 10928 10930 10932 10935 10938 10942 10945 10948 10951 10953 10955 10958 10960 10962 10964 10966 10967 10969 10970 10972 10974
10871 10870 10871 10871 10869 10870 10870 10869 10870 10871 10870 10869 10871 10871 10870 10870 10869 10868 10868 10868 10868 10869 10870 10870 10869 10868 10869 10869 10868 10868 10869 10869 10870 10870 10870 10871 10871 10871 10871 10871 10872 10872 10872 10872 10872 10873 10874 10875 10877 10879 10881 10882 10884 10885 10887 10889 10892 10894 10896 10900 10903 10907 10911 10914 10916 10918 10920 10922 10924 10927 10930 10934 10938 10940 10943 10946 10949 10952 10955 10957 10959 10961 10963 10965 10966 10968 10970 10972
10868 10867 10867 10867 10866 10866 10867 10866 10866 10867 10867 10867 10868 10868 10867 10867 10866 10866 10865 10865 10866 10866 10867 10867 10866 10865 10866 10867 10866 10866 10866 10867 10867 10868 10868 10868 10868 10868 10869 10869 10869 10869 10869 10869 10869 10870 10871 10872 10873 10875 10877 10878 10879 10881 10882 10885 10888 10890 10892 10894 10898 10901 10905 10908 10910 10913 10915 10918 10921 10923 10926 10929 10932 10935 10939 10942 10946 10949 10951 10954 10956 10957 10960 10962 10963 10966 10968 10970
10865 10863 10863 10864 10863 10862 10863 10863 10863 10864 10864 10864 10865 10865 10864 10863 10863 10863 10862 10863 10864 10863 10864 10865 10864 10863 10864 10865 10864 10864 10864 10864 10865 10865 10865 10865 10865 10866 10866 10866 10866 10866 10866 10866 10867 10868 10868 10868 10870 10871 10873 10874 10875 10876 10878 10881 10884 10885 10886 10888 10892 10896 10899 10902 10906 10908 10910 10914 10917 10919 10922 10924 10926 10930 10934 10939 10942 10944 10947 10951 10953 10955 10956 10958 10961 10963 10965 10967
10861 10860 10860 10861 10861 10859 10859 10860 10860 10860 10860 10860 10861 10861 10861 10860 10860 10860 10860 10861 10861 10860 10861 10862 10861 10860 10861 10863 10862 10862 10862 10862 10862 10863 10863 10863 10863 10863 10864 10864 10864 10863 10863 10863 10864 10866 10866 10865 10866 10867 10868 10869 10870 10871 10873 10876 10879 10879 10880 10883 10887 10891 10894 10897 10901 10903 10906 10909 10911 10914 10917 10919 10920 10925 10929 10934 10938 10940 10944 10947 10949 10951 10953 10955 10957 10959 10962 10964
10857 10856 10856 10857 10858 10856 10856 10856 10857 10857 10857 10857 10858 10858 10857 10857 10857 10857 10858 10858 10857 10858 10859 10858 10858 10858 10859 10860 10861 10860 10860 10860 10860 10860 10861 10861 10860 10861 10861 10862 10862 10861 10861 10861 10861 10862 10863 10863 10863 10864 10864 10865 10866 10867 10869 10872 10874 10874 10876 10879 10882 10884 10888 10892 10896 10899 10902 10905 10906 10910 10913 10914 10915 10919 10924 10928 10932 10936 10939 10942 10944 10947 10949 10952 10953 10956 10959 10962
10853 10853 10853 10853 10854 10853 10852 10852 10853 10854 10854 10854 10854 10854 10854 10853 10853 10854 10855 10854 10854 10856 10856 10855 10856 10857 10856 10857 10858 10859 10858 10858 10858 10858 10858 10859 10858 10858 10859 10859 10859 10859 10858 10859 10859 10859 10860 10860 10860 10860 10860 10861 10862 10863 10865 10867 10869 10870 10871 10874 10876 10878 10882 10887 10890 10894 10897 10899 10902 10906 10908 10908 10909 10914 10919 10922 10926 10930 10933 10936 10939 10942 10945 10948 10949 10952 10956 10959
10849 10849 10849 10849 10849 10850 10849 10849 10850 10850 10850 10850 10850 10850 10850 10849 10850 10851 10851 10851 10852 10853 10853 10852 10853 10853 10854 10854 10854 10856 10856 10855 10856 10856 10855 10855 10856 10856 10856 10856 10856 10856 10856 10856 10857 10857 10856 10856 10857 10857 10857 10857 10858 10860 10861 10863 10864 10866 10868 10870 10872 10874 10877 10882 10885 10888 10891 10894 10898 10901 10902 10902 10905 10909 10913 10916 10920 10924 10928 10931 10935 10937 10940 10943 10945 10948 10953 10957
10845 10844 10845 10846 10845 10845 10846 10845 10846 10846 10846 10846 10846 10846 10845 10845 10847 10848 10847 10847 10849 10850 10850 10850 10849 10849 10850 10851 10851 10852 10853 10852 10852 10853 10852 10852 10853 10853 10853 10853 10853 10852 10853 10854 10854 10854 10853 10853 10853 10853 10854 10854 10855 10856 10857 10859 10860 10862 10863 10865 10867 10869 10872 10876 10880 10882 10885 10889 10893 10895 10896 10898 10901 10904 10906 10910 10913 10918 10922 10927 10930 10933 10936 10939 10942 10945 10950 10954
10841 10840 10840 10841 10841 10841 10842 10842 10842 10842 10842 10842 10842 10841 10840 10841 10843 10844 10844 10844 10846 10847 10847 10846 10846 10846 10845 10846 10849 10849 10848 10849 10849 10850 10850 10849 10849 10850 10850 10850 10850 10849 10850 10851 10851 10851 10850 10850 10849 10849 10851 10852 10851 10852 10854 10855 10856 10857 10858 10861 10863 10865 10867 10870 10874 10877 10879 10883 10887 10889 10891 10894 10897 10899 10900 10904 10909 10913 10917 10922 10926 10929 10932 10935 10938 10942 10946 10950
10837 10835 10835 10836 10836 10836 10837 10837 10838 10838 10838 10838 10837 10836 10835 10837 10839 10840 10840 10841 10842 10842 10842 10842 10843 10844 10841 10840 10844 10845 10844 10845 10845 10845 10846 10846 10846 10847 10846 10846 10846 10846 10847 10848 10848 10848 10847 10847 10846 10846 10849 10849 10848 10849 10850 10850 10852 10854 10855 10856 10858 10860 10862 10866 10869 10871 10874 10878 10881 10884 10888 10890 10892 10894 10896 10900 10905 10909 10913 10917 10921 10924 10927 10930 10933 10937 10941 10945
10831 10830 10830 10831 10831 10831 10831 10832 10833 10833 10833 10833 10832 10830 10831 10833 10834 10835 10837 10837 10837 10837 10838 10839 10839 10839 10838 10837 10838 10841 10842 10842 10841 10841 10842 10843 10843 10843 10842 10843 10843 10843 10844 10845 10845 10845 10844 10844 10843 10843 10846 10846 10845 10846 10847 10847 10848 10850 10851 10851 10854 10856 10858 10861 10864 10866 10870 10874 10876 10880 10883 10885 10886 10890 10894 10896 10900 10904 10908 10911 10916 10919 10922 10925 10929 10932 10936 10941
10825 10823 10824 10826 10826 10825 10826 10826 10827 10828 10828 10827 10826 10826 10827 10828 10829 10830 10832 10832 10832 10832 10833 10835 10834 10834 10835 10835 10834 10836 10838 10838 10838 10837 10838 10839 10839 10839 10839 10839 10840 10841 10841 10842 10842 10842 10842 10842 10841 10840 10842 10842 10843 10844 10844 10844 10845 10846 10846 10847 10850 10852 10853 10856 10859 10862 10867 10870 10872 10875 10877 10878 10881 10886 10889 10892 10895 10899 10903 10906 10910 10914 10918 10921 10924 10927 10932 10936
10818 10816 10817 10820 10820 10819 10820 10820 10821 10822 10822 10821 10821 10822 10822 10822 10823 10825 10826 10827 10827 10827 10828 10830 10830 10829 10829 10830 10831 10831 10832 10833 10834 10833 10834 10835 10835 10834 10835 10836 10836 10837 10838 10838 10838 10839 10839 10840 10839 10838 10838 10839 10840 10842 10842 10842 10843 10843 10843 10845 10846 10847 10850 10852 10855 10858 10863 10865 10867 10869 10870 10873 10877 10881 10884 10887 10891 10893 10896 10900 10903 10907 10911 10915 10918 10923 10927 10931
10811 10810 10811 10813 10813 10813 10813 10813 10814 10814 10815 10815 10816 10816 10817 10817 10818 10819 10820 10821 10821 10821 10823 10825 10825 10824 10824 10824 10825 10826 10826 10827 10828 10829 10830 10830 10829 10829 10831 10832 10832 10833 10834 10834 10834 10835 10836 10837 10837 10837 10836 10835 10837 10840 10839 10839 10840 10840 10840 10841 10842 10843 10845 10848 10850 10854 10857 10861 10863 10864 10865 10869 10873 10876 10879 10883 10886 10887 10889 10894 10897 10901 10906 10910 10914 10918 10921 10925
10804 10803 10803 10806 10806 10806 10806 10806 10806 10807 10808 10809 10810 10810 10811 10811 10812 10813 10815 10815 10815 10815 10818 10820 10820 10819 10818 10818 10819 10821 10821 10822 10823 10824 10825 10825 10824 10825 10826 10828 10828 10828 10829 10829 10830 10832 10833 10834 10835 10835 10834 10833 10834 10836 10836 10836 10837 10837 10837 10838 10839 10840 10841 10843 10846 10850 10853 10856 10859 10860 10862 10864 10868 10871 10874 10877 10880 10881 10884 10888 10892 10896 10900 10904 10908 10912 10916 10919
10797 10796 10796 10798 10798 10797 10798 10799 10798 10799 10801 10803 10803 10804 10804 10804 10805 10807 10809 10809 10809 10810 10812 10815 10816 10815 10813 10812 10814 10816 10817 10817 10817 10819 10820 10819 10818 10820 10821 10823 10824 10825 10825 10825 10827 10829 10830 10831 10832 10832 10832 10831 10832 10833 10833 10834 10834 10834 10834 10835 10836 10837 10838 10839 10842 10844 10847 10850 10853 10856 10857 10859 10861 10865 10869 10871 10874 10877 10880 10882 10886 10890 10894 10898 10901 10906 10910 10913
10790 10789 10789 10790 10789 10787 10788 10790 10790 10792 10795 10795 10796 10797 10798 10798 10799 10801 10803 10803 10803 10803 10806 10809 10811 10810 10808 10808 10809 10811 10811 10812 10812 10814 10814 10813 10812 10814 10816 10818 10820 10822 10822 10822 10823 10825 10826 10827 10827 10828 10829 10829 10829 10829 10830 10831 10831 10830 10832 10832 10832 10834 10835 10836 10838 10839 10842 10845 10848 10851 10853 10854 10856 10860 10863 10866 10869 10872 10874 10876 10879 10884 10889 10892 10896 10899 10903 10907
10782 10782 10781 10781 10780 10779 10779 10782 10784 10786 10788 10788 10790 10791 10791 10792 10793 10795 10796 10797 10797 10798 10800 10803 10805 10806 10804 10803 10804 10806 10807 10807 10807 10807 10807 10806 10807 10810 10811 10813 10817 10819 10819 10819 10820 10821 10822 10823 10823 10824 10825 10825 10825 10826 10827 10828 10827 10827 10828 10829 10830 10831 10832 10833 10834 10836 10838 10841 10844 10846 10848 10850 10853 10856 10859 10861 10862 10864 10867 10871 10875 10879 10883 10886 10889 10893 10896 10900
10775 10775 10773 10771 10770 10771 10773 10775 10777 10780 10781 10782 10783 10783 10784 10785 10786 10788 10790 10792 10792 10793 10794 10795 10799 10800 10799 10799 10799 10801 10802 10801 10801 10802 10802 10801 10803 10805 10807 10809 10813 10815 10815 10815 10816 10816 10817 10819 10819 10819 10820 10821 10821 10823 10824 10824 10824 10824 10825 10826 10827 10828 10829 10830 10831 10832 10834 10836 10839 10842 10844 10847 10850 10852 10854 10855 10856 10858 10861 10866 10871 10874 10877 10879 10882 10887 10891 10895
10767 10767 10765 10761 10760 10764 10766 10767 10769 10770 10772 10773 10773 10775 10776 10777 10778 10781 10784 10786 10786 10788 10788 10789 10792 10794 10794 10794 10794 10795 10796 10796 10796 10797 10797 10797 10797 10800 10803 10806 10808 10810 10811 10811 10810 10810 10811 10814 10815 10815 10816 10817 10818 10819 10820 10821 10821 10822 10823 10823 10824 10825 10826 10827 10828 10829 10830 10831 10835 10838 10840 10843 10845 10846 10848 10849 10851 10853 10856 10861 10865 10867 10870 10873 10877 10881 10885 10889
10757 10758 10756 10753 10752 10755 10758 10759 10760 10761 10763 10765 10766 10768 10769 10769 10771 10775 10778 10779 10781 10783 10783 10783 10785 10788 10788 10788 10789 10790 10791 10792 10792 10793 10793 10792 10792 10796 10799 10801 10803 10805 10806 10807 10806 10805 10807 10810 10811 10811 10811 10812 10814 10815 10816 10817 10817 10819 10819 10820 10821 10822 10822 10823 10824 10826 10827 10829 10832 10834 10837 10838 10839 10840 10842 10844 10846 10849 10851 10855 10857 10860 10864 10868 10872 10875 10878 10882
10746 10747 10746 10744 10744 10745 10747 10749 10751 10753 10755 10757 10759 10760 10760 10761 10765 10768 10770 10772 10774 10777 10778 10777 10779 10782 10783 10784 10785 10785 10786 10787 10787 10788 10789 10788 10788 10791 10793 10795 10796 10798 10799 10802 10802 10802 10803 10805 10806 10806 10806 10807 10810 10812 10812 10812 10813 10815 10815 10816 10817 10819 10819 10820 10821 10823 10824 10825 10828 10830 10831 10832 10833 10835 10837 10840 10842 10844 10845 10847 10850 10853 10858 10863 10866 10869 10872 10874
10734 10734 10734 10734 10734 10735 10736 10739 10741 10743 10745 10748 10749 10749 10751 10755 10758 10760 10762 10765 10768 10771 10772 10773 10774 10776 10778 10779 10780 10780 10782 10783 10783 10784 10785 10785 10784 10785 10787 10789 10791 10792 10793 10795 10796 10798 10799 10799 10800 10801 10802 10802 10805 10807 10808 10808 10809 10811 10811 10812 10814 10815 10816 10817 10819 10819 10820 10821 10823 10825 10826 10827 10828 10831 10834 10835 10836 10837 10838 10840 10843 10848 10853 10857 10860 10862 10865 10866
10721 10721 10721 10722 10723 10724 10725 10728 10730 10732 10735 10738 10740 10741 10745 10748 10750 10753 10758 10761 10763 10765 10767 10769 10771 10772 10773 10775 10775 10776 10777 10779 10779 10779 10780 10780 10780 10780 10781 10784 10786 10787 10787 10788 10790 10793 10793 10792 10793 10795 10796 10797 10798 10801 10803 10804 10805 10807 10807 10808 10809 10811 10813 10814 10815 10816 10816 10817 10819 10821 10823 10824 10824 10826 10828 10829 10828 10829 10831 10834 10838 10842 10847 10850 10853 10856 10857 10859
10708 10707 10708 10710 10711 10712 10714 10716 10719 10722 10725 10728 10732 10735 10740 10742 10744 10748 10753 10755 10757 10759 10762 10764 10766 10767 10768 10769 10771 10772 10773 10774 10774 10775 10776 10776 10775 10775 10777 10779 10780 10780 10782 10783 10785 10787 10787 10786 10787 10789 10791 10792 10792 10794 10798 10800 10801 10802 10803 10803 10805 10807 10809 10810 10812 10812 10812 10813 10815 10818 10819 10820 10820 10821 10821 10820 10820 10823 10827 10830 10833 10837 10841 10844 10846 10849 10850 10853
10695 10695 10695 10697 10698 10700 10703 10706 10709 10712 10715 10719 10726 10731 10734 10735 10737 10740 10744 10748 10751 10754 10755 10757 10760 10761 10762 10764 10766 10768 10769 10770 10770 10770 10771 10771 10771 10772 10774 10774 10774 10775 10776 10777 10779 10781 10781 10780 10781 10783 10786 10787 10787 10789 10793 10795 10797 10798 10798 10799 10801 10803 10805 10806 10808 10808 10808 10809 10812 10814 10815 10816 10816 10816 10815 10815 10816 10819 10822 10825 10828 10831 10834 10837 10841 10843 10844 10846